This demonstration page uses our WeatherBlox Daily Observations layout. Learn more.

Left ArrowRight Arrow

Hourly Observations for April 12, 2015

Temp ( °F °C ) Dew Point ( °F °C ) Humidity (%) Winds ( mph kmh ) Pressure ( in mb ) Visibility ( mi km ) Precip ( " mm )
12:16 am 00:16 Clear 46 8 27 -3 46 46 ESE 3 6 30.24 1024 10 16.0934 N/A
12:35 am 00:35 Clear 45 7 30 -1 57 57 SE 3 6 30.24 1024 10 16.0934 N/A
12:56 am 00:56 Clear 45 7 28 -2 53 53 SE 3 6 30.21 1023 10 16.0934 N/A
1:16 am 01:16 Clear 46 8 28 -2 50 50 Calm 30.21 1023 10 16.0934 N/A
1:36 am 01:36 Clear 46 8 28 -2 50 50 ESE 5 7 30.21 1023 10 16.0934 N/A
1:56 am 01:56 Clear 46 8 27 -3 46 46 SE 5 7 30.21 1023 10 16.0934 N/A
2:15 am 02:15 Clear 46 8 27 -3 46 46 SE 6 9 30.21 1023 10 16.0934 N/A
2:36 am 02:36 Clear 46 8 27 -3 46 46 SE 6 9 30.21 1023 10 16.0934 N/A
2:56 am 02:56 Clear 46 8 27 -3 46 46 SSE 5 7 30.21 1023 10 16.0934 N/A
3:15 am 03:15 Clear 46 8 25 -4 43 43 SSE 6 9 30.21 1023 10 16.0934 N/A
3:36 am 03:36 Clear 46 8 27 -3 46 46 SE 7 11 30.21 1023 10 16.0934 N/A
3:56 am 03:56 Clear 45 7 27 -3 49 49 SE 6 9 30.21 1023 10 16.0934 N/A
4:16 am 04:16 Clear 45 7 27 -3 49 49 SE 7 11 30.21 1023 10 16.0934 N/A
4:36 am 04:36 Clear 45 7 27 -3 49 49 SSE 3 6 30.21 1023 10 16.0934 N/A
4:55 am 04:55 Clear 45 7 27 -3 49 49 SE 3 6 30.21 1023 10 16.0934 N/A
5:16 am 05:16 Clear 45 7 27 -3 49 49 SE 3 6 30.21 1023 10 16.0934 N/A
5:36 am 05:36 Clear 45 7 27 -3 49 49 SSE 3 6 30.21 1023 10 16.0934 N/A
5:55 am 05:55 Clear 43 6 27 -3 53 53 SE 5 7 30.21 1023 10 16.0934 N/A
6:16 am 06:16 Clear 43 6 27 -3 53 53 SE 3 6 30.21 1023 10 16.0934 N/A
6:36 am 06:36 Clear 43 6 27 -3 53 53 SE 5 7 30.21 1023 10 16.0934 N/A
6:55 am 06:55 Clear 43 6 27 -3 53 53 SE 5 7 30.21 1023 10 16.0934 N/A
7:16 am 07:16 Sunny 43 6 28 -2 57 57 SE 6 9 30.21 1023 10 16.0934 N/A
7:36 am 07:36 Sunny 43 6 28 -2 57 57 SE 7 11 30.21 1023 10 16.0934 N/A
7:55 am 07:55 Sunny 45 7 28 -2 53 53 SE 6 9 30.21 1023 10 16.0934 N/A
8:16 am 08:16 Sunny 45 7 28 -2 53 53 SE 6 9 30.24 1024 10 16.0934 N/A
8:36 am 08:36 Sunny 46 8 30 -1 53 53 SE 6 9 30.24 1024 10 16.0934 N/A
8:55 am 08:55 Sunny 48 9 28 -2 46 46 SE 8 13 30.24 1024 10 16.0934 N/A
9:16 am 09:16 Sunny 52 11 28 -2 41 41 SE 9 15 30.24 1024 10 16.0934 N/A
9:36 am 09:36 Sunny 54 12 28 -2 38 38 SE 10 17 30.24 1024 10 16.0934 N/A
9:55 am 09:55 Sunny 55 13 28 -2 36 36 SE 10 17 30.24 1024 10 16.0934 N/A
10:16 am 10:16 Sunny 57 14 27 -3 31 31 SSE 13 20 30.18 1022 10 16.0934 N/A
10:36 am 10:36 Sunny 57 14 27 -3 31 31 SE 12 19 30.18 1022 10 16.0934 N/A
10:56 am 10:56 Sunny 59 15 27 -3 29 29 SSE 10 17 30.21 1023 10 16.0934 N/A
11:16 am 11:16 Sunny 61 16 23 -5 23 23 S 12 19 30.18 1022 10 16.0934 N/A
11:35 am 11:35 Sunny 61 16 23 -5 23 23 SE 13 20 30.18 1022 10 16.0934 N/A
11:56 am 11:56 Sunny 63 17 21 -6 20 20 SSE 10 17 30.18 1022 10 16.0934 N/A
12:16 pm 12:16 Sunny 63 17 19 -7 19 19 S 13 20 30.18 1022 10 16.0934 N/A
12:35 pm 12:35 Sunny 64 18 18 -8 16 16 SE 13 20 30.18 1022 10 16.0934 N/A
12:56 pm 12:56 Sunny 64 18 16 -9 15 15 SSE 10 17 30.18 1022 10 16.0934 N/A
1:16 pm 13:16 Sunny 66 19 18 -8 15 15 SSE 12 19 30.18 1022 10 16.0934 N/A
1:36 pm 13:36 Sunny 66 19 14 -10 13 13 SE 10 17 30.18 1022 10 16.0934 N/A
1:56 pm 13:56 Sunny 68 20 12 -11 11 11 SE 10 17 30.15 1021 10 16.0934 N/A
2:15 pm 14:15 Sunny 68 20 12 -11 11 11 ESE 10 17 30.15 1021 10 16.0934 N/A
2:36 pm 14:36 Sunny 70 21 10 -12 10 10 SSE 13 20 30.15 1021 10 16.0934 N/A
2:56 pm 14:56 Sunny 70 21 10 -12 10 10 SSE 12 19 30.12 1020 10 16.0934 N/A
3:15 pm 15:15 Sunny 70 21 7 -14 8 8 SSE 7 11 30.15 1021 10 16.0934 N/A
3:36 pm 15:36 Sunny 70 21 12 -11 11 11 S 6 9 30.15 1021 10 16.0934 N/A
3:56 pm 15:56 Sunny 70 21 10 -12 10 10 SSE 8 13 30.12 1020 10 16.0934 N/A
4:15 pm 16:15 Sunny 70 21 10 -12 10 10 SE 7 11 30.12 1020 10 16.0934 N/A
4:36 pm 16:36 Sunny 70 21 12 -11 11 11 SE 10 17 30.09 1019 10 16.0934 N/A
4:56 pm 16:56 Sunny 70 21 12 -11 11 11 SSE 9 15 30.09 1019 10 16.0934 N/A
5:15 pm 17:15 Sunny 70 21 12 -11 11 11 SSE 8 13 30.09 1019 10 16.0934 N/A
5:36 pm 17:36 Sunny 70 21 10 -12 10 10 SSE 7 11 30.09 1019 10 16.0934 N/A
5:56 pm 17:56 Sunny 70 21 12 -11 11 11 S 10 17 30.09 1019 10 16.0934 N/A
6:15 pm 18:15 Sunny 68 20 10 -12 10 10 SSE 8 13 30.09 1019 10 16.0934 N/A
6:36 pm 18:36 Sunny 68 20 16 -9 13 13 SSE 9 15 30.06 1018 10 16.0934 N/A
6:56 pm 18:56 Sunny 68 20 14 -10 12 12 SSE 7 11 30.06 1018 10 16.0934 N/A
7:15 pm 19:15 Sunny 66 19 16 -9 14 14 S 7 11 30.06 1018 10 16.0934 N/A
7:36 pm 19:36 Sunny 66 19 21 -6 18 18 SSE 3 6 30.06 1018 10 16.0934 N/A
7:56 pm 19:56 Sunny 64 18 25 -4 22 22 Calm 30.06 1018 10 16.0934 N/A
8:16 pm 20:16 Sunny 64 18 21 -6 19 19 E 3 6 30.06 1018 10 16.0934 N/A
8:36 pm 20:36 Clear 63 17 23 -5 22 22 ENE 3 6 30.06 1018 10 16.0934 N/A
8:56 pm 20:56 Clear 59 15 30 -1 34 34 E 3 6 30.06 1018 10 16.0934 N/A
9:16 pm 21:16 Clear 57 14 37 3 48 48 ESE 5 7 30.06 1018 10 16.0934 N/A
9:36 pm 21:36 Clear 55 13 36 2 47 47 ESE 5 7 30.06 1018 10 16.0934 N/A
9:56 pm 21:56 Clear 55 13 34 1 44 44 ESE 6 9 30.06 1018 10 16.0934 N/A
10:16 pm 22:16 Clear 57 14 30 -1 36 36 ESE 6 9 30.06 1018 10 16.0934 N/A
10:36 pm 22:36 Clear 57 14 32 0 39 39 ESE 8 13 30.03 1017 10 16.0934 N/A
10:55 pm 22:55 Clear 59 15 28 -2 31 31 ESE 6 9 30.06 1018 10 16.0934 N/A
11:16 pm 23:16 Clear 59 15 28 -2 31 31 SE 6 9 30.03 1017 10 16.0934 N/A
11:36 pm 23:36 Clear 59 15 28 -2 31 31 SE 7 11 30.06 1018 10 16.0934 N/A
11:55 pm 23:55 Clear 59 15 28 -2 31 31 SE 6 9 30.03 1017 10 16.0934 N/A

Powered by AerisWeather